This demonstration page uses our WeatherBlox Daily Observations layout. Learn more.

Left ArrowRight Arrow

Hourly Observations for April 15, 2021

Temp ( °F °C ) Dew Point ( °F °C ) Humidity (%) Winds ( mph kmh ) Pressure ( in mb ) Visibility ( mi km ) Precip ( " mm )
12:53 am 00:53 Cloudy 33 0.6 28 -2.2 82 82 E 5 7 30.39 1029 10 16 0.00 0.00
1:53 am 01:53 Cloudy 33 0.6 28 -2.2 82 82 E 6 9 30.38 1029 10 16 0.00 0.00
2:29 am 02:29 Cloudy 33 0.6 28 -2.2 82 82 ENE 9 15 30.38 1029 10 16 0.00 0.00
2:53 am 02:53 Cloudy 33 0.6 28 -2.2 82 82 ENE 7 11 30.36 1028 10 16 0.00 0.00
3:53 am 03:53 Cloudy 32 0 28 -2.2 85 85 ENE 9 15 30.36 1028 10 16 0.00 0.00
4:53 am 04:53 Cloudy 32 0 27 -2.8 82 82 ENE 12 19 30.36 1028 10 16 0.00 0.00
5:01 am 05:01 Cloudy 32 0 27 -2.8 82 82 E 8 13 30.39 1029 10 16 0.00 0.00
5:25 am 05:25 Cloudy 32 0 27 -2.8 82 82 E 9 15 30.38 1029 10 16 0.00 0.00
5:46 am 05:46 Cloudy 31 -0.6 29 -1.7 92 92 E 9 15 30.38 1029 10 16 0.00 0.00
5:53 am 05:53 Cloudy 31 -0.6 29 -1.7 92 92 E 9 15 30.34 1027 10 16 0.00 0.00
6:41 am 06:41 Cloudy 31 -0.6 29 -1.7 92 92 ENE 7 11 30.36 1028 10 16 0.00 0.00
6:53 am 06:53 Cloudy 32 0 29 -1.7 88 88 E 5 7 30.33 1027 10 16 0.00 0.00
7:53 am 07:53 Cloudy 33 0.6 29 -1.7 85 85 ENE 8 13 30.34 1027 10 16 0.00 0.00
8:53 am 08:53 Cloudy 35 1.7 29 -1.7 78 78 E 9 15 30.35 1028 10 16 0.00 0.00
9:53 am 09:53 Cloudy 36 2.2 29 -1.7 76 76 E 8 13 30.35 1028 10 16 0.00 0.00
10:53 am 10:53 Cloudy 38 3.3 30 -1.1 73 73 E 5 7 30.34 1027 10 16 0.00 0.00
11:53 am 11:53 Cloudy 41 5 30 -1.1 65 65 ENE 6 9 30.33 1027 10 16 0.00 0.00
12:53 pm 12:53 Cloudy 43 6.1 31 -0.6 63 63 NE 5 7 30.32 1027 10 16 0.00 0.00
1:53 pm 13:53 Cloudy 46 7.8 32 0 58 58 NNE 8 13 30.30 1026 10 16 0.00 0.00
2:53 pm 14:53 Cloudy 47 8.3 33 0.6 59 59 ENE 12 19 30.29 1026 10 16 0.00 0.00
3:40 pm 15:40 Cloudy 48 8.9 33 0.6 56 56 E 10 17 30.24 1024 10 16 0.00 0.00
3:53 pm 15:53 Cloudy 46 7.8 33 0.6 61 61 ESE 15 24 30.29 1026 10 16 0.00 0.00
4:53 pm 16:53 Cloudy 46 7.8 33 0.6 61 61 E 10 17 30.29 1026 10 16 0.00 0.00
5:53 pm 17:53 Cloudy 46 7.8 33 0.6 61 61 E 9 15 30.30 1026 10 16 0.00 0.00
6:53 pm 18:53 undefined N/A N/A N/A undefined N/A N/A N/A 0.00 0.00
7:53 pm 19:53 undefined N/A N/A N/A undefined N/A N/A N/A 0.00 0.00
8:53 pm 20:53 undefined 38 3.3 31 -0.6 76 76 E 7 11 30.33 1027 10 16 0.00 0.00
9:53 pm 21:53 Clear 35 1.7 30 -1.1 82 82 ENE 5 7 30.35 1028 10 16 0.00 0.00
10:53 pm 22:53 Mostly Cloudy 33 0.6 31 -0.6 92 92 E 3 6 30.37 1028 10 16 0.00 0.00
11:53 pm 23:53 Clear 28 -2.2 26 -3.3 92 92 Calm 30.37 1029 10 16 0.00 0.00

Powered by AerisWeather